UAL1010 FACT-KIAD

Flight info

Callsign UAL1010
Flight time N/A
Altitude 30000
Route IMSOM1A IMSOM UQ34 UVIKU DCT ALDOV DCT 25S010E 20S006E 18S005E 11S000E/N0508F320 DCT ONANA DCT 06S005W 02S010W 02N015W 06N020W/N0501F340 DCT PISKA DCT GROBA DCT MOSOK DCT APOXA DCT NATAS/M084F340 DCT XIBOT DCT 24N040W/M084F360 33N050W 40N060W/M084F380 DCT DOVEY/N0476F380 DCT ACK Q430 RBV HYPER9
Aircraft B77W/H-SDE1E2E3FGHIJ2J3J4J5M1RWXY/LB1D1

Departure

Time 2026-05-05 00:44
Airport Cape Town International Airport (FACT)

Arrival

Time N/A
Airport Washington Dulles International Airport (KIAD)
Time Latitude Longitude Altitude Speed Heading
2026-05-05 00:11 -33.96901 18.59807 168 ft 0 kts 256°
2026-05-05 00:32 -33.96898 18.59822 168 ft 2 kts 256°
2026-05-05 00:32 -33.96896 18.59833 168 ft 1 kts 256°
2026-05-05 00:32 -33.96891 18.59850 168 ft 2 kts 239°
2026-05-05 00:32 -33.96882 18.59864 168 ft 2 kts 221°
2026-05-05 00:33 -33.96870 18.59875 168 ft 2 kts 205°
2026-05-05 00:33 -33.96856 18.59881 169 ft 2 kts 189°
2026-05-05 00:33 -33.96841 18.59882 169 ft 2 kts 173°
2026-05-05 00:33 -33.96832 18.59880 169 ft 1 kts 164°
2026-05-05 00:34 -33.96831 18.59879 169 ft 0 kts 163°
2026-05-05 00:36 -33.96847 18.59885 169 ft 5 kts 163°
2026-05-05 00:36 -33.96901 18.59904 168 ft 10 kts 163°
2026-05-05 00:36 -33.96989 18.59931 166 ft 15 kts 165°
2026-05-05 00:36 -33.97095 18.59958 166 ft 14 kts 169°
2026-05-05 00:37 -33.97186 18.59984 165 ft 12 kts 165°
2026-05-05 00:37 -33.97269 18.60010 164 ft 11 kts 165°
2026-05-05 00:37 -33.97346 18.60033 162 ft 10 kts 165°
2026-05-05 00:37 -33.97411 18.60054 162 ft 8 kts 164°
2026-05-05 00:38 -33.97472 18.60075 162 ft 10 kts 160°
2026-05-05 00:38 -33.97561 18.60120 161 ft 17 kts 154°
2026-05-05 00:38 -33.97696 18.60182 159 ft 22 kts 160°
2026-05-05 00:38 -33.97841 18.60245 156 ft 20 kts 160°
2026-05-05 00:39 -33.97968 18.60300 156 ft 17 kts 160°
2026-05-05 00:39 -33.98075 18.60347 156 ft 14 kts 161°
2026-05-05 00:39 -33.98167 18.60385 156 ft 13 kts 160°
2026-05-05 00:39 -33.98255 18.60423 156 ft 12 kts 160°
2026-05-05 00:40 -33.98338 18.60458 156 ft 12 kts 160°
2026-05-05 00:40 -33.98416 18.60492 156 ft 11 kts 160°
2026-05-05 00:40 -33.98493 18.60525 156 ft 12 kts 160°
2026-05-05 00:40 -33.98577 18.60562 156 ft 13 kts 160°
2026-05-05 00:41 -33.98669 18.60601 156 ft 13 kts 160°
2026-05-05 00:41 -33.98751 18.60636 156 ft 11 kts 159°
2026-05-05 00:41 -33.98758 18.60639 156 ft 0 kts 158°
2026-05-05 00:41 -33.98763 18.60642 156 ft 2 kts 156°
2026-05-05 00:42 -33.98795 18.60664 156 ft 7 kts 131°
2026-05-05 00:42 -33.98798 18.60740 157 ft 11 kts 73°
2026-05-05 00:42 -33.98774 18.60841 159 ft 10 kts 73°
2026-05-05 00:42 -33.98747 18.60876 159 ft 5 kts
2026-05-05 00:43 -33.98698 18.60866 159 ft 9 kts 346°
2026-05-05 00:43 -33.98480 18.60798 159 ft 64 kts 345°
2026-05-05 00:43 -33.97826 18.60589 159 ft 127 kts 345°
2026-05-05 00:43 -33.96797 18.60262 166 ft 180 kts 346°
2026-05-05 00:44 -33.95530 18.59833 683 ft 189 kts 344°
2026-05-05 00:44 -33.94251 18.59363 1391 ft 196 kts 344°
2026-05-05 00:44 -33.92951 18.58893 2055 ft 198 kts 344°
2026-05-05 00:44 -33.91592 18.58382 2244 ft 214 kts 338°
2026-05-05 00:45 -33.90349 18.57290 2493 ft 228 kts 309°
2026-05-05 00:45 -33.89394 18.55661 2771 ft 244 kts 304°
2026-05-05 00:45 -33.88253 18.54089 3050 ft 257 kts 323°
2026-05-05 00:45 -33.86758 18.52848 3552 ft 265 kts 327°
2026-05-05 00:46 -33.85182 18.51662 4056 ft 273 kts 326°
2026-05-05 00:46 -33.83805 18.50067 4592 ft 278 kts 301°
2026-05-05 00:46 -33.83165 18.47907 5148 ft 282 kts 273°
2026-05-05 00:46 -33.83423 18.45595 5766 ft 284 kts 246°
2026-05-05 00:47 -33.84539 18.43635 6339 ft 287 kts 220°
2026-05-05 00:47 -33.86085 18.42106 6885 ft 290 kts 227°
2026-05-05 00:47 -33.87185 18.40076 7432 ft 291 kts 249°
2026-05-05 00:47 -33.87799 18.37766 8047 ft 291 kts 257°
2026-05-05 00:48 -33.88195 18.35389 8686 ft 291 kts 260°
2026-05-05 00:48 -33.88556 18.33018 9264 ft 293 kts 260°
2026-05-05 00:48 -33.88932 18.30586 9871 ft 294 kts 261°
2026-05-05 00:48 -33.89300 18.28189 10343 ft 300 kts 261°
2026-05-05 00:49 -33.89688 18.25649 10602 ft 315 kts 261°
2026-05-05 00:49 -33.90089 18.23016 10875 ft 329 kts 261°
2026-05-05 00:49 -33.90512 18.20235 11177 ft 343 kts 261°
2026-05-05 00:49 -33.90951 18.17343 11501 ft 356 kts 261°
2026-05-05 00:50 -33.91402 18.14366 11835 ft 369 kts 261°
2026-05-05 00:50 -33.91857 18.11333 12312 ft 376 kts 262°
2026-05-05 00:50 -33.92047 18.08196 12901 ft 379 kts 272°
2026-05-05 00:50 -33.91769 18.05012 13507 ft 382 kts 282°
2026-05-05 00:51 -33.91035 18.01960 14107 ft 384 kts 292°
2026-05-05 00:51 -33.89840 17.99063 14710 ft 388 kts 302°
2026-05-05 00:51 -33.88213 17.96445 15304 ft 391 kts 311°
2026-05-05 00:51 -33.86211 17.94209 15888 ft 395 kts 320°
2026-05-05 00:52 -33.84049 17.92198 16489 ft 397 kts 321°
2026-05-05 00:52 -33.81862 17.90192 17085 ft 400 kts 321°
2026-05-05 00:52 -33.79649 17.88163 17666 ft 403 kts 321°
2026-05-05 00:52 -33.77398 17.86100 18243 ft 405 kts 321°
2026-05-05 00:53 -33.75172 17.84060 18793 ft 408 kts 321°
2026-05-05 00:53 -33.72902 17.81980 19340 ft 410 kts 321°
2026-05-05 00:53 -33.70640 17.79908 19874 ft 413 kts 321°
2026-05-05 00:53 -33.68344 17.77806 20404 ft 415 kts 321°
2026-05-05 00:54 -33.66041 17.75699 20892 ft 417 kts 321°
2026-05-05 00:54 -33.63744 17.73599 21411 ft 417 kts 321°
2026-05-05 00:54 -33.61452 17.71505 21918 ft 418 kts 321°
2026-05-05 00:54 -33.59127 17.69382 22410 ft 419 kts 321°
2026-05-05 00:55 -33.56785 17.67246 22914 ft 420 kts 321°
2026-05-05 00:55 -33.54451 17.65117 23391 ft 421 kts 321°
2026-05-05 00:55 -33.52129 17.63002 23849 ft 422 kts 321°
2026-05-05 00:55 -33.49774 17.60857 24300 ft 423 kts 321°
2026-05-05 00:56 -33.47425 17.58720 24733 ft 424 kts 321°
2026-05-05 00:56 -33.45069 17.56569 25159 ft 426 kts 321°
2026-05-05 00:56 -33.42726 17.54363 25578 ft 428 kts 321°
2026-05-05 00:56 -33.40411 17.52173 25988 ft 429 kts 321°
2026-05-05 00:57 -33.38050 17.49943 26394 ft 431 kts 321°
2026-05-05 00:57 -33.35708 17.47733 26753 ft 434 kts 321°
2026-05-05 00:57 -33.33309 17.45472 27118 ft 437 kts 321°
2026-05-05 00:57 -33.30927 17.43231 27481 ft 440 kts 321°
2026-05-05 00:58 -33.28510 17.40959 27826 ft 442 kts 321°
2026-05-05 00:58 -33.26083 17.38678 28166 ft 445 kts 321°
2026-05-05 00:58 -33.23662 17.36407 28499 ft 447 kts 320°
2026-05-05 00:58 -33.21191 17.34089 28831 ft 450 kts 321°
2026-05-05 00:59 -33.18711 17.31766 29175 ft 451 kts 321°
2026-05-05 00:59 -33.16246 17.29458 29598 ft 451 kts 321°
2026-05-05 00:59 -33.13792 17.27162 29985 ft 452 kts 321°
2026-05-05 01:00 -33.08863 17.22556 30045 ft 449 kts 321°
2026-05-05 01:00 -33.03966 17.17988 30045 ft 446 kts 321°
2026-05-05 01:01 -32.99072 17.13428 30011 ft 445 kts 321°
2026-05-05 01:01 -32.94218 17.08910 30004 ft 447 kts 321°
2026-05-05 01:02 -32.89320 17.04361 30009 ft 447 kts 321°
2026-05-05 01:02 -32.84363 16.99763 30020 ft 447 kts 321°
2026-05-05 01:03 -32.79378 16.95145 30024 ft 447 kts 321°
2026-05-05 01:03 -32.74455 16.90591 30024 ft 447 kts 321°
2026-05-05 01:04 -32.69510 16.86023 30024 ft 447 kts 321°
2026-05-05 01:04 -32.62058 16.79152 30023 ft 448 kts 321°
2026-05-05 01:05 -32.57108 16.74597 30023 ft 448 kts 321°
2026-05-05 01:05 -32.52167 16.70056 30023 ft 448 kts 321°
2026-05-05 01:06 -32.47189 16.65488 30023 ft 449 kts 321°
2026-05-05 01:06 -32.42153 16.60873 30023 ft 450 kts 321°
2026-05-05 01:07 -32.37161 16.56305 30022 ft 450 kts 321°
2026-05-05 01:07 -32.32074 16.51657 30023 ft 451 kts 321°
2026-05-05 01:08 -32.27078 16.47098 30023 ft 452 kts 321°
2026-05-05 01:08 -32.22105 16.42568 30023 ft 452 kts 321°
2026-05-05 01:09 -32.17066 16.37983 30024 ft 453 kts 321°
2026-05-05 01:09 -32.12068 16.33443 30032 ft 454 kts 321°
2026-05-05 01:10 -32.07074 16.28911 30032 ft 454 kts 321°
2026-05-05 01:10 -32.02088 16.24394 30030 ft 454 kts 321°
2026-05-05 01:11 -31.97067 16.19852 30030 ft 454 kts 321°
2026-05-05 01:11 -31.92063 16.15332 30030 ft 455 kts 321°
2026-05-05 01:12 -31.87029 16.10792 30037 ft 455 kts 321°
2026-05-05 01:12 -31.82008 16.06268 30038 ft 454 kts 321°
2026-05-05 01:13 -31.76984 16.01749 30039 ft 454 kts 321°
2026-05-05 01:13 -31.71974 15.97248 30039 ft 454 kts 321°
2026-05-05 01:14 -31.66957 15.92749 30038 ft 455 kts 321°
2026-05-05 01:14 -31.61911 15.88228 30037 ft 455 kts 321°
2026-05-05 01:15 -31.56892 15.83738 30037 ft 455 kts 321°
2026-05-05 01:15 -31.51868 15.79251 30037 ft 455 kts 321°
2026-05-05 01:16 -31.46831 15.74757 30037 ft 456 kts 321°
2026-05-05 01:16 -31.41766 15.70245 30037 ft 456 kts 321°
2026-05-05 01:17 -31.36721 15.65757 30036 ft 456 kts 321°
2026-05-05 01:17 -31.31665 15.61265 30036 ft 457 kts 321°
2026-05-05 01:18 -31.26624 15.56792 30035 ft 457 kts 321°
2026-05-05 01:18 -31.21535 15.52285 30036 ft 457 kts 321°
2026-05-05 01:19 -31.16465 15.47799 30035 ft 457 kts 320°
2026-05-05 01:19 -31.11396 15.43321 30035 ft 458 kts 320°
2026-05-05 01:20 -31.06329 15.38851 30035 ft 457 kts 320°
2026-05-05 01:20 -31.01242 15.34369 30037 ft 457 kts 321°
2026-05-05 01:21 -30.96165 15.29902 30044 ft 458 kts 321°
2026-05-05 01:21 -30.91100 15.25452 30045 ft 458 kts 321°
2026-05-05 01:22 -30.85984 15.20963 30050 ft 458 kts 321°
2026-05-05 01:22 -30.80900 15.16509 30049 ft 459 kts 321°
2026-05-05 01:23 -30.75814 15.12058 30046 ft 459 kts 320°
2026-05-05 01:23 -30.70710 15.07597 30042 ft 459 kts 320°
2026-05-05 01:24 -30.65602 15.03139 30040 ft 459 kts 320°
2026-05-05 01:24 -30.60508 14.98663 30038 ft 459 kts 319°
2026-05-05 01:25 -30.55577 14.93937 30039 ft 459 kts 318°
2026-05-05 01:25 -30.50641 14.89208 30038 ft 459 kts 318°
2026-05-05 01:26 -30.45713 14.84507 30038 ft 460 kts 318°
2026-05-05 01:26 -30.40764 14.79800 30037 ft 461 kts 318°
2026-05-05 01:27 -30.35777 14.75067 30036 ft 462 kts 317°
2026-05-05 01:27 -30.30810 14.70362 30036 ft 463 kts 317°
2026-05-05 01:28 -30.25821 14.65642 30035 ft 464 kts 317°
2026-05-05 01:28 -30.20813 14.60913 30035 ft 465 kts 317°
2026-05-05 01:29 -30.15806 14.56190 30035 ft 466 kts 317°
2026-05-05 01:29 -30.10793 14.51470 30036 ft 467 kts 317°
2026-05-05 01:30 -30.05755 14.46731 30033 ft 468 kts 317°
2026-05-05 01:30 -30.00714 14.41996 30030 ft 469 kts 317°
2026-05-05 01:31 -29.95631 14.37228 30030 ft 470 kts 317°
2026-05-05 01:31 -29.90581 14.32498 30038 ft 471 kts 317°
2026-05-05 01:32 -29.85484 14.27730 30039 ft 470 kts 317°
2026-05-05 01:32 -29.80408 14.22988 30041 ft 469 kts 317°
2026-05-05 01:33 -29.75341 14.18262 30044 ft 469 kts 317°
2026-05-05 01:33 -29.70275 14.13541 30044 ft 470 kts 317°
2026-05-05 01:34 -29.65192 14.08812 30047 ft 469 kts 317°
2026-05-05 01:34 -29.60106 14.04086 30051 ft 469 kts 317°
2026-05-05 01:35 -29.55042 13.99386 30052 ft 468 kts 317°
2026-05-05 01:35 -29.49974 13.94690 30049 ft 468 kts 317°
2026-05-05 01:36 -29.44886 13.89981 30046 ft 471 kts 317°
2026-05-05 01:36 -29.39770 13.85253 30047 ft 473 kts 317°
2026-05-05 01:37 -29.34662 13.80539 30048 ft 473 kts 317°
2026-05-05 01:37 -29.29533 13.75811 30047 ft 473 kts 317°
2026-05-05 01:38 -29.24412 13.71097 30047 ft 472 kts 316°
2026-05-05 01:38 -29.19294 13.66393 30046 ft 471 kts 316°
2026-05-05 01:39 -29.14178 13.61695 30045 ft 471 kts 316°
2026-05-05 01:39 -29.09083 13.57023 30045 ft 471 kts 316°
2026-05-05 01:40 -29.03938 13.52312 30045 ft 470 kts 316°
2026-05-05 01:40 -28.98855 13.47663 30044 ft 470 kts 316°
2026-05-05 01:41 -28.93744 13.42995 30054 ft 470 kts 316°
2026-05-05 01:41 -28.88625 13.38326 30064 ft 470 kts 315°
2026-05-05 01:42 -28.83533 13.33687 30075 ft 470 kts 316°
2026-05-05 01:42 -28.78418 13.29034 30080 ft 470 kts 316°
2026-05-05 01:43 -28.73303 13.24386 30080 ft 469 kts 316°
2026-05-05 01:43 -28.68211 13.19766 30080 ft 468 kts 315°
2026-05-05 01:44 -28.63111 13.15143 30080 ft 469 kts 315°
2026-05-05 01:44 -28.58000 13.10516 30080 ft 469 kts 315°
2026-05-05 01:45 -28.52881 13.05889 30076 ft 469 kts 315°
2026-05-05 01:45 -28.47759 13.01265 30071 ft 470 kts 315°
2026-05-05 01:46 -28.42611 12.96623 30070 ft 471 kts 315°
2026-05-05 01:46 -28.37474 12.91997 30069 ft 473 kts 315°
2026-05-05 01:47 -28.32307 12.87350 30069 ft 474 kts 315°
2026-05-05 01:47 -28.27140 12.82709 30069 ft 475 kts 314°
2026-05-05 01:48 -28.21952 12.78055 30069 ft 476 kts 314°
2026-05-05 01:48 -28.16743 12.73388 30069 ft 478 kts 314°
2026-05-05 01:49 -28.11518 12.68713 30069 ft 479 kts 314°
2026-05-05 01:49 -28.06281 12.64033 30070 ft 480 kts 314°
2026-05-05 01:50 -28.01027 12.59343 30070 ft 482 kts 314°
2026-05-05 01:50 -27.95759 12.54648 30072 ft 483 kts 314°
2026-05-05 01:51 -27.90489 12.49958 30073 ft 481 kts 313°
2026-05-05 01:51 -27.85228 12.45281 30063 ft 480 kts 313°
2026-05-05 01:52 -27.79975 12.40615 30062 ft 482 kts 313°
2026-05-05 01:52 -27.74686 12.35924 30063 ft 483 kts 313°
2026-05-05 01:53 -27.69392 12.31235 30080 ft 485 kts 313°
2026-05-05 01:53 -27.64096 12.26552 30082 ft 485 kts 313°
2026-05-05 01:54 -27.58811 12.21882 30082 ft 485 kts 313°
2026-05-05 01:54 -27.53473 12.17173 30083 ft 485 kts 313°
2026-05-05 01:55 -27.48161 12.12491 30083 ft 484 kts 313°
2026-05-05 01:55 -27.42847 12.07815 30084 ft 484 kts 313°
2026-05-05 01:56 -27.37572 12.03179 30084 ft 482 kts 313°
2026-05-05 01:56 -27.32275 11.98529 30085 ft 481 kts 313°
2026-05-05 01:57 -27.27006 11.93909 30086 ft 481 kts 313°
2026-05-05 01:57 -27.21715 11.89274 30085 ft 481 kts 313°
2026-05-05 01:58 -27.16443 11.84661 30085 ft 484 kts 312°
2026-05-05 01:58 -27.11086 11.79981 30085 ft 486 kts 312°
2026-05-05 01:59 -27.05775 11.75349 30085 ft 484 kts 312°
2026-05-05 01:59 -27.00468 11.70726 30085 ft 483 kts 312°
2026-05-05 02:00 -26.95158 11.66104 30085 ft 482 kts 311°
2026-05-05 02:00 -26.89871 11.61509 30084 ft 481 kts 311°
2026-05-05 02:01 -26.84575 11.56910 30070 ft 481 kts 311°
2026-05-05 02:01 -26.79279 11.52317 30068 ft 481 kts 311°
2026-05-05 02:02 -26.73983 11.47730 30068 ft 480 kts 311°
2026-05-05 02:02 -26.68704 11.43163 30067 ft 480 kts 311°
2026-05-05 02:03 -26.63416 11.38594 30078 ft 480 kts 311°
2026-05-05 02:03 -26.58121 11.34024 30101 ft 479 kts 311°
2026-05-05 02:04 -26.52845 11.29477 30114 ft 479 kts 311°
2026-05-05 02:04 -26.47551 11.24920 30114 ft 478 kts 311°
2026-05-05 02:05 -26.42300 11.20403 30114 ft 479 kts 311°
2026-05-05 02:05 -26.37004 11.15854 30113 ft 480 kts 311°
2026-05-05 02:06 -26.31714 11.11315 30113 ft 480 kts 311°
2026-05-05 02:06 -26.26433 11.06790 30113 ft 480 kts 311°
2026-05-05 02:07 -26.21135 11.02255 30113 ft 481 kts 311°
2026-05-05 02:07 -26.15821 10.97713 30113 ft 481 kts 311°
2026-05-05 02:08 -26.10509 10.93178 30113 ft 482 kts 311°
2026-05-05 02:08 -26.05187 10.88639 30113 ft 483 kts 311°
2026-05-05 02:09 -25.99851 10.84093 30113 ft 484 kts 311°
2026-05-05 02:09 -25.94477 10.79520 30117 ft 485 kts 312°
2026-05-05 02:10 -25.89114 10.74963 30114 ft 484 kts 312°
2026-05-05 02:10 -25.83768 10.70426 30099 ft 484 kts 312°
2026-05-05 02:11 -25.78405 10.65879 30096 ft 485 kts 312°
2026-05-05 02:11 -25.73051 10.61345 30097 ft 486 kts 312°
2026-05-05 02:12 -25.64974 10.54514 30098 ft 487 kts 313°
2026-05-05 02:13 -25.59581 10.49961 30098 ft 487 kts 313°
2026-05-05 02:13 -25.54171 10.45398 30098 ft 487 kts 313°
2026-05-05 02:14 -25.48805 10.40878 30098 ft 488 kts 313°
2026-05-05 02:14 -25.43388 10.36320 30100 ft 489 kts 313°
2026-05-05 02:15 -25.37965 10.31761 30117 ft 490 kts 313°
2026-05-05 02:15 -25.32510 10.27182 30118 ft 490 kts 313°
2026-05-05 02:16 -25.27094 10.22641 30118 ft 490 kts 313°
2026-05-05 02:16 -25.21668 10.18096 30118 ft 490 kts 313°
2026-05-05 02:17 -25.16200 10.13522 30117 ft 490 kts 313°
2026-05-05 02:17 -25.10783 10.08995 30117 ft 490 kts 314°
2026-05-05 02:18 -25.05323 10.04438 30116 ft 491 kts 314°
2026-05-05 02:18 -24.99878 9.99899 30117 ft 491 kts 314°
2026-05-05 02:19 -24.94451 9.95351 30114 ft 492 kts 314°
2026-05-05 02:19 -24.88979 9.90763 30108 ft 495 kts 314°
2026-05-05 02:20 -24.83476 9.86157 30103 ft 496 kts 314°
2026-05-05 02:20 -24.77957 9.81545 30103 ft 496 kts 314°
2026-05-05 02:21 -24.72472 9.76965 30104 ft 496 kts 314°
2026-05-05 02:21 -24.66956 9.72366 30104 ft 496 kts 314°
2026-05-05 02:22 -24.61442 9.67773 30104 ft 496 kts 315°
2026-05-05 02:22 -24.55944 9.63199 30105 ft 496 kts 315°
2026-05-05 02:23 -24.50439 9.58624 30105 ft 496 kts 315°
2026-05-05 02:23 -24.44944 9.54063 30105 ft 496 kts 315°
2026-05-05 02:24 -24.39448 9.49505 30106 ft 496 kts 315°
2026-05-05 02:24 -24.33934 9.44938 30106 ft 496 kts 315°
2026-05-05 02:25 -24.28405 9.40364 30106 ft 497 kts 315°
2026-05-05 02:25 -24.22903 9.35817 30106 ft 496 kts 315°
2026-05-05 02:26 -24.17371 9.31250 30119 ft 497 kts 315°
2026-05-05 02:26 -24.11830 9.26681 30120 ft 497 kts 315°
2026-05-05 02:27 -24.06323 9.22145 30121 ft 497 kts 315°
2026-05-05 02:27 -24.00796 9.17598 30121 ft 497 kts 315°
2026-05-05 02:28 -23.95238 9.13030 30115 ft 497 kts 316°
2026-05-05 02:28 -23.89730 9.08508 30114 ft 497 kts 316°
2026-05-05 02:29 -23.84180 9.03957 30110 ft 498 kts 316°
2026-05-05 02:29 -23.78627 8.99408 30110 ft 498 kts 316°
2026-05-05 02:30 -23.73086 8.94874 30109 ft 498 kts 316°
2026-05-05 02:30 -23.67575 8.90369 30108 ft 498 kts 316°
2026-05-05 02:31 -23.61994 8.85812 30108 ft 498 kts 316°
2026-05-05 02:31 -23.56453 8.81293 30108 ft 499 kts 317°
2026-05-05 02:32 -23.50882 8.76754 30108 ft 499 kts 317°
2026-05-05 02:32 -23.45296 8.72209 30108 ft 499 kts 317°
2026-05-05 02:33 -23.39759 8.67708 30108 ft 499 kts 317°
2026-05-05 02:33 -23.34181 8.63176 30108 ft 500 kts 317°
2026-05-05 02:34 -23.28582 8.58635 30108 ft 500 kts 317°
2026-05-05 02:34 -23.23013 8.54123 30108 ft 500 kts 317°
2026-05-05 02:35 -23.17407 8.49585 30108 ft 500 kts 317°
2026-05-05 02:35 -23.11813 8.45062 30108 ft 500 kts 317°
2026-05-05 02:36 -23.06262 8.40578 30108 ft 500 kts 317°
2026-05-05 02:36 -23.00646 8.36046 30108 ft 501 kts 317°
2026-05-05 02:37 -22.95061 8.31544 30125 ft 502 kts 318°
2026-05-05 02:37 -22.89462 8.27036 30143 ft 502 kts 318°
2026-05-05 02:38 -22.83831 8.22506 30145 ft 502 kts 318°
2026-05-05 02:38 -22.78223 8.18001 30146 ft 503 kts 318°
2026-05-05 02:39 -22.72597 8.13485 30130 ft 503 kts 318°
2026-05-05 02:39 -22.66925 8.08939 30101 ft 504 kts 318°
2026-05-05 02:40 -22.61325 8.04453 30082 ft 504 kts 318°
2026-05-05 02:40 -22.55662 7.99922 30081 ft 504 kts 318°
2026-05-05 02:41 -22.49986 7.95384 30083 ft 506 kts 319°
2026-05-05 02:41 -22.44332 7.90869 30083 ft 507 kts 319°
2026-05-05 02:42 -22.38650 7.86337 30084 ft 507 kts 319°
2026-05-05 02:42 -22.32947 7.81793 30084 ft 507 kts 319°
2026-05-05 02:43 -22.27273 7.77277 30083 ft 507 kts 319°
2026-05-05 02:43 -22.21594 7.72761 30083 ft 507 kts 319°
2026-05-05 02:44 -22.15907 7.68244 30083 ft 507 kts 319°
2026-05-05 02:44 -22.10189 7.63706 30083 ft 508 kts 319°
2026-05-05 02:45 -22.04515 7.59208 30102 ft 508 kts 319°
2026-05-05 02:45 -21.98821 7.54699 30140 ft 508 kts 319°
2026-05-05 02:46 -21.93122 7.50191 30161 ft 507 kts 319°
2026-05-05 02:46 -21.87434 7.45695 30155 ft 507 kts 319°
2026-05-05 02:47 -21.81719 7.41183 30153 ft 507 kts 319°
2026-05-05 02:47 -21.76016 7.36684 30153 ft 507 kts 319°
2026-05-05 02:48 -21.70318 7.32195 30159 ft 507 kts 320°
2026-05-05 02:48 -21.64637 7.27724 30160 ft 507 kts 320°
2026-05-05 02:49 -21.58931 7.23238 30161 ft 506 kts 320°
2026-05-05 02:49 -21.53271 7.18792 30162 ft 506 kts 320°
2026-05-05 02:50 -21.47589 7.14332 30162 ft 506 kts 320°
2026-05-05 02:50 -21.41890 7.09863 30162 ft 506 kts 320°
2026-05-05 02:51 -21.36214 7.05418 30163 ft 505 kts 320°
2026-05-05 02:51 -21.30546 7.00983 30163 ft 505 kts 320°
2026-05-05 02:52 -21.24868 6.96546 30164 ft 505 kts 320°
2026-05-05 02:52 -21.19172 6.92097 30164 ft 505 kts 320°
2026-05-05 02:53 -21.13484 6.87660 30165 ft 505 kts 320°
2026-05-05 02:53 -21.07824 6.83249 30165 ft 504 kts 320°
2026-05-05 02:54 -21.02144 6.78826 30166 ft 504 kts 320°
2026-05-05 02:54 -20.96437 6.74386 30166 ft 504 kts 320°
2026-05-05 02:55 -20.90777 6.69987 30166 ft 504 kts 320°
2026-05-05 02:55 -20.85111 6.65588 30161 ft 504 kts 320°
2026-05-05 02:56 -20.79413 6.61168 30162 ft 504 kts 320°
2026-05-05 02:56 -20.73722 6.56758 30167 ft 504 kts 320°
2026-05-05 02:57 -20.68023 6.52346 30170 ft 504 kts 320°
2026-05-05 02:57 -20.62336 6.47947 30171 ft 504 kts 321°
2026-05-05 02:58 -20.56694 6.43587 30171 ft 503 kts 321°
2026-05-05 02:58 -20.50987 6.39182 30171 ft 503 kts 321°
2026-05-05 02:59 -20.45338 6.34825 30172 ft 503 kts 321°
2026-05-05 02:59 -20.39661 6.30450 30177 ft 503 kts 321°
2026-05-05 03:00 -20.33981 6.26077 30178 ft 503 kts 321°
2026-05-05 03:00 -20.28306 6.21712 30179 ft 503 kts 321°
2026-05-05 03:01 -20.22634 6.17353 30179 ft 503 kts 321°
2026-05-05 03:01 -20.16948 6.12988 30179 ft 503 kts 321°
2026-05-05 03:02 -20.11263 6.08627 30180 ft 502 kts 321°
2026-05-05 03:02 -20.05582 6.04274 30180 ft 502 kts 321°
2026-05-05 03:03 -19.99819 6.00059 30179 ft 505 kts 328°
2026-05-05 03:03 -19.93515 5.96741 30182 ft 507 kts 332°
2026-05-05 03:04 -19.87136 5.93500 30178 ft 506 kts 332°
2026-05-05 03:04 -19.80776 5.90278 30177 ft 506 kts 332°
2026-05-05 03:05 -19.74361 5.87033 30177 ft 506 kts 332°
2026-05-05 03:05 -19.67986 5.83814 30177 ft 506 kts 332°
2026-05-05 03:06 -19.61666 5.80625 30177 ft 505 kts 332°
2026-05-05 03:06 -19.55274 5.77403 30178 ft 504 kts 332°
2026-05-05 03:07 -19.48955 5.74221 30178 ft 504 kts 332°
2026-05-05 03:07 -19.42587 5.71018 30178 ft 503 kts 332°
2026-05-05 03:08 -19.36237 5.67826 30178 ft 502 kts 332°
2026-05-05 03:08 -19.29916 5.64652 30178 ft 502 kts 332°
2026-05-05 03:09 -19.23605 5.61486 30178 ft 501 kts 332°
2026-05-05 03:09 -19.17285 5.58317 30178 ft 500 kts 332°
2026-05-05 03:10 -19.10978 5.55157 30173 ft 499 kts 332°
2026-05-05 03:10 -19.04712 5.52022 30173 ft 499 kts 332°
2026-05-05 03:11 -18.98456 5.48894 30180 ft 498 kts 332°
2026-05-05 03:11 -18.92164 5.45751 30180 ft 497 kts 332°
2026-05-05 03:12 -18.85932 5.42640 30177 ft 497 kts 332°
2026-05-05 03:12 -18.79651 5.39507 30177 ft 496 kts 332°
2026-05-05 03:13 -18.73364 5.36374 30177 ft 496 kts 331°
2026-05-05 03:13 -18.67145 5.33277 30183 ft 496 kts 332°
2026-05-05 03:14 -18.60896 5.30167 30184 ft 495 kts 332°
2026-05-05 03:14 -18.54616 5.27046 30185 ft 495 kts 332°
2026-05-05 03:15 -18.48385 5.23950 30185 ft 494 kts 332°
2026-05-05 03:15 -18.42190 5.20876 30185 ft 494 kts 332°
2026-05-05 03:16 -18.35963 5.17788 30185 ft 494 kts 332°
2026-05-05 03:16 -18.29703 5.14685 30185 ft 494 kts 332°
2026-05-05 03:17 -18.23482 5.11605 30186 ft 494 kts 332°
2026-05-05 03:17 -18.17262 5.08528 30186 ft 494 kts 332°
2026-05-05 03:18 -18.11052 5.05459 30186 ft 493 kts 332°
2026-05-05 03:18 -18.04830 5.02385 30186 ft 493 kts 332°
2026-05-05 03:19 -17.95931 4.96997 30186 ft 489 kts 322°
2026-05-05 03:19 -17.90374 4.92849 30178 ft 489 kts 322°
2026-05-05 03:20 -17.84830 4.88718 30175 ft 487 kts 322°
2026-05-05 03:20 -17.79299 4.84602 30184 ft 486 kts 322°
2026-05-05 03:21 -17.73763 4.80487 30186 ft 486 kts 322°
2026-05-05 03:21 -17.68219 4.76371 30182 ft 486 kts 322°
2026-05-05 03:22 -17.62714 4.72288 30173 ft 486 kts 322°
2026-05-05 03:22 -17.57168 4.68178 30162 ft 487 kts 322°
2026-05-05 03:23 -17.51622 4.64071 30152 ft 487 kts 322°
2026-05-05 03:23 -17.46097 4.59985 30143 ft 487 kts 322°
2026-05-05 03:24 -17.40573 4.55899 30142 ft 487 kts 322°
2026-05-05 03:24 -17.35022 4.51799 30142 ft 487 kts 322°
2026-05-05 03:25 -17.29507 4.47727 30142 ft 486 kts 322°
2026-05-05 03:25 -17.23969 4.43642 30143 ft 486 kts 322°
2026-05-05 03:26 -17.18450 4.39573 30155 ft 486 kts 321°
2026-05-05 03:26 -17.12905 4.35489 30166 ft 486 kts 321°
2026-05-05 03:27 -17.07365 4.31412 30175 ft 486 kts 322°
2026-05-05 03:27 -17.01840 4.27348 30174 ft 485 kts 322°
2026-05-05 03:28 -16.96315 4.23287 30173 ft 485 kts 322°
2026-05-05 03:28 -16.90798 4.19235 30172 ft 484 kts 322°
2026-05-05 03:29 -16.85270 4.15179 30171 ft 484 kts 322°
2026-05-05 03:29 -16.79765 4.11141 30171 ft 483 kts 322°
2026-05-05 03:30 -16.74262 4.07109 30170 ft 483 kts 322°
2026-05-05 03:30 -16.68763 4.03082 30169 ft 483 kts 322°
2026-05-05 03:31 -16.63279 3.99069 30169 ft 482 kts 321°
2026-05-05 03:31 -16.57762 3.95036 30170 ft 482 kts 321°
2026-05-05 03:32 -16.52276 3.91027 30170 ft 482 kts 322°
2026-05-05 03:32 -16.46758 3.86997 30168 ft 482 kts 322°
2026-05-05 03:33 -16.41266 3.82990 30167 ft 482 kts 321°
2026-05-05 03:33 -16.35759 3.78975 30166 ft 482 kts 321°
2026-05-05 03:34 -16.30258 3.74966 30166 ft 482 kts 321°
2026-05-05 03:34 -16.24776 3.70974 30166 ft 481 kts 321°
2026-05-05 03:35 -16.19285 3.66980 30164 ft 481 kts 321°
2026-05-05 03:35 -16.13793 3.62980 30164 ft 481 kts 321°
2026-05-05 03:36 -16.08304 3.58996 30164 ft 481 kts 321°
2026-05-05 03:36 -16.02798 3.54999 30163 ft 481 kts 321°
2026-05-05 03:37 -15.97319 3.51024 30163 ft 481 kts 321°
2026-05-05 03:37 -15.91846 3.47055 30160 ft 481 kts 321°
2026-05-05 03:38 -15.86315 3.43047 30159 ft 481 kts 321°
2026-05-05 03:38 -15.80818 3.39066 30160 ft 481 kts 321°
2026-05-05 03:39 -15.75339 3.35101 30160 ft 482 kts 321°
2026-05-05 03:39 -15.69827 3.31115 30168 ft 482 kts 322°
2026-05-05 03:40 -15.64308 3.27127 30168 ft 482 kts 322°
2026-05-05 03:40 -15.58800 3.23149 30167 ft 482 kts 322°
2026-05-05 03:41 -15.53270 3.19157 30166 ft 482 kts 322°
2026-05-05 03:41 -15.47768 3.15189 30165 ft 483 kts 322°
2026-05-05 03:42 -15.42266 3.11222 30165 ft 483 kts 322°
2026-05-05 03:42 -15.36711 3.07221 30164 ft 483 kts 322°
2026-05-05 03:43 -15.31208 3.03261 30163 ft 483 kts 322°
2026-05-05 03:43 -15.25676 2.99281 30162 ft 483 kts 322°
2026-05-05 03:44 -15.20144 2.95304 30162 ft 483 kts 322°
2026-05-05 03:44 -15.14634 2.91346 30161 ft 483 kts 322°
2026-05-05 03:45 -15.09073 2.87354 30160 ft 484 kts 322°
2026-05-05 03:45 -15.03561 2.83399 30154 ft 484 kts 322°
2026-05-05 03:46 -14.98015 2.79422 30121 ft 484 kts 322°
2026-05-05 03:46 -14.92468 2.75447 30088 ft 484 kts 322°
2026-05-05 03:47 -14.86917 2.71472 30085 ft 485 kts 322°
2026-05-05 03:47 -14.81369 2.67502 30087 ft 485 kts 322°
2026-05-05 03:48 -14.75843 2.63550 30086 ft 485 kts 322°
2026-05-05 03:48 -14.70278 2.59572 30086 ft 485 kts 322°
2026-05-05 03:49 -14.64700 2.55588 30085 ft 485 kts 322°
2026-05-05 03:49 -14.59161 2.51634 30084 ft 485 kts 322°
2026-05-05 03:50 -14.53590 2.47660 30083 ft 486 kts 322°
2026-05-05 03:50 -14.48019 2.43687 30082 ft 486 kts 322°
2026-05-05 03:51 -14.42440 2.39713 30081 ft 486 kts 323°
2026-05-05 03:51 -14.36879 2.35753 30080 ft 486 kts 323°
2026-05-05 03:52 -14.31303 2.31785 30086 ft 486 kts 323°
2026-05-05 03:52 -14.25705 2.27804 30086 ft 486 kts 323°
2026-05-05 03:53 -14.20130 2.23841 30085 ft 487 kts 323°
2026-05-05 03:53 -14.14573 2.19894 30084 ft 487 kts 323°
2026-05-05 03:54 -14.08973 2.15918 30083 ft 487 kts 323°
2026-05-05 03:54 -14.03356 2.11935 30082 ft 488 kts 323°
2026-05-05 03:55 -13.97761 2.07967 30082 ft 488 kts 323°
2026-05-05 03:55 -13.92174 2.04008 30081 ft 488 kts 323°
2026-05-05 03:56 -13.86600 2.00060 30080 ft 488 kts 323°
2026-05-05 03:56 -13.80973 1.96078 30079 ft 488 kts 323°
2026-05-05 03:57 -13.75378 1.92120 30078 ft 488 kts 323°
2026-05-05 03:57 -13.69813 1.88186 30077 ft 488 kts 323°
2026-05-05 03:58 -13.64201 1.84221 30076 ft 488 kts 323°
2026-05-05 03:58 -13.58589 1.80258 30075 ft 488 kts 323°
2026-05-05 03:59 -13.52996 1.76312 30075 ft 488 kts 323°
2026-05-05 03:59 -13.47382 1.72353 30074 ft 488 kts 323°
2026-05-05 04:00 -13.41796 1.68415 30073 ft 489 kts 323°
2026-05-05 04:00 -13.36152 1.64439 30072 ft 489 kts 323°
2026-05-05 04:01 -13.30530 1.60484 30071 ft 489 kts 323°
2026-05-05 04:01 -13.24925 1.56539 30071 ft 489 kts 323°
2026-05-05 04:02 -13.19303 1.52584 30070 ft 490 kts 323°
2026-05-05 04:02 -13.13638 1.48601 30069 ft 490 kts 323°
2026-05-05 04:03 -13.08019 1.44654 30068 ft 490 kts 323°
2026-05-05 04:03 -13.02352 1.40677 30068 ft 490 kts 323°
2026-05-05 04:04 -12.96714 1.36720 30067 ft 490 kts 323°
2026-05-05 04:04 -12.91077 1.32767 30071 ft 491 kts 324°
2026-05-05 04:05 -12.85432 1.28811 30071 ft 491 kts 324°
2026-05-05 04:05 -12.79763 1.24840 30070 ft 492 kts 324°
2026-05-05 04:06 -12.74114 1.20885 30069 ft 491 kts 324°
2026-05-05 04:06 -12.68461 1.16929 30068 ft 492 kts 324°
2026-05-05 04:07 -12.62776 1.12953 30067 ft 492 kts 324°
2026-05-05 04:07 -12.57108 1.08992 30067 ft 492 kts 324°
2026-05-05 04:08 -12.51475 1.05057 30066 ft 492 kts 324°
2026-05-05 04:08 -12.45795 1.01091 30065 ft 492 kts 324°
2026-05-05 04:09 -12.40126 0.97135 30065 ft 492 kts 324°
2026-05-05 04:09 -12.34445 0.93174 30063 ft 492 kts 324°
2026-05-05 04:10 -12.28799 0.89238 30059 ft 492 kts 324°
2026-05-05 04:10 -12.23134 0.85291 30055 ft 492 kts 324°
2026-05-05 04:11 -12.17466 0.81345 30054 ft 492 kts 324°
2026-05-05 04:11 -12.11819 0.77414 30054 ft 492 kts 324°
2026-05-05 04:12 -12.06154 0.73474 30053 ft 492 kts 324°
2026-05-05 04:12 -12.00494 0.69539 30052 ft 492 kts 324°
2026-05-05 04:13 -11.94816 0.65594 30051 ft 491 kts 324°
2026-05-05 04:13 -11.89161 0.61666 30048 ft 492 kts 324°
2026-05-05 04:14 -11.83482 0.57723 30047 ft 493 kts 324°
2026-05-05 04:14 -11.77802 0.53782 30051 ft 493 kts 324°
2026-05-05 04:15 -11.72102 0.49830 30051 ft 493 kts 324°
2026-05-05 04:15 -11.66443 0.45908 30049 ft 493 kts 324°
2026-05-05 04:16 -11.60752 0.41965 30049 ft 493 kts 324°
2026-05-05 04:16 -11.55067 0.38028 30048 ft 493 kts 324°
2026-05-05 04:17 -11.49409 0.34113 30049 ft 493 kts 324°
2026-05-05 04:17 -11.43717 0.30176 30050 ft 493 kts 324°
2026-05-05 04:18 -11.38039 0.26250 30050 ft 493 kts 324°
2026-05-05 04:18 -11.32329 0.22305 30048 ft 493 kts 324°
2026-05-05 04:19 -11.26639 0.18375 30048 ft 493 kts 324°
2026-05-05 04:19 -11.20956 0.14451 30047 ft 494 kts 324°
2026-05-05 04:20 -11.15237 0.10505 30046 ft 494 kts 324°
2026-05-05 04:20 -11.09532 0.06570 30046 ft 494 kts 324°
2026-05-05 04:21 -11.03846 0.02651 30045 ft 494 kts 324°
2026-05-05 04:21 -10.98174 -0.01316 30044 ft 499 kts 321°
2026-05-05 04:22 -10.95435 -0.03552 30274 ft 502 kts 320°
2026-05-05 04:22 -10.92736 -0.05788 30784 ft 497 kts 320°
2026-05-05 04:22 -10.90041 -0.08013 31338 ft 492 kts 320°
2026-05-05 04:22 -10.87410 -0.10176 31858 ft 490 kts 320°
2026-05-05 04:23 -10.84732 -0.12372 32087 ft 491 kts 320°
2026-05-05 04:23 -10.82098 -0.14527 32123 ft 487 kts 319°
2026-05-05 04:23 -10.76866 -0.18794 32085 ft 477 kts 319°
2026-05-05 04:24 -10.71667 -0.23027 32078 ft 477 kts 319°
2026-05-05 04:25 -10.63908 -0.29333 32024 ft 477 kts 319°
2026-05-05 04:25 -10.58712 -0.33551 32025 ft 478 kts 319°
2026-05-05 04:26 -10.53480 -0.37795 32037 ft 478 kts 319°
2026-05-05 04:26 -10.48282 -0.42009 32036 ft 478 kts 319°
2026-05-05 04:27 -10.43080 -0.46225 32034 ft 478 kts 319°
2026-05-05 04:27 -10.37849 -0.50461 32033 ft 478 kts 319°
2026-05-05 04:28 -10.32654 -0.54668 32031 ft 478 kts 319°
2026-05-05 04:28 -10.27455 -0.58875 32030 ft 478 kts 319°
2026-05-05 04:29 -10.22256 -0.63079 32029 ft 478 kts 319°
2026-05-05 04:29 -10.17030 -0.67305 32034 ft 479 kts 320°
2026-05-05 04:30 -10.11839 -0.71500 32034 ft 479 kts 320°
2026-05-05 04:30 -10.06601 -0.75732 32033 ft 479 kts 320°
2026-05-05 04:31 -10.01400 -0.79931 32031 ft 479 kts 320°
2026-05-05 04:31 -9.96165 -0.84156 32030 ft 479 kts 320°
2026-05-05 04:32 -9.90922 -0.88386 32028 ft 481 kts 320°
2026-05-05 04:32 -9.85675 -0.92618 32028 ft 483 kts 320°
2026-05-05 04:33 -9.80398 -0.96872 32028 ft 482 kts 320°
2026-05-05 04:33 -9.75143 -1.01107 32027 ft 482 kts 320°
2026-05-05 04:34 -9.69924 -1.05310 32026 ft 482 kts 320°
2026-05-05 04:34 -9.64645 -1.09560 32025 ft 482 kts 320°
2026-05-05 04:35 -9.59376 -1.13801 32023 ft 482 kts 320°
2026-05-05 04:35 -9.54116 -1.18032 32021 ft 482 kts 320°
2026-05-05 04:36 -9.48871 -1.22250 32019 ft 482 kts 320°
2026-05-05 04:36 -9.43580 -1.26503 32018 ft 482 kts 320°
2026-05-05 04:37 -9.38329 -1.30722 32017 ft 482 kts 320°
2026-05-05 04:37 -9.33067 -1.34948 32016 ft 482 kts 320°
2026-05-05 04:38 -9.27763 -1.39207 32015 ft 482 kts 320°
2026-05-05 04:38 -9.22489 -1.43438 32014 ft 482 kts 320°
2026-05-05 04:39 -9.17215 -1.47670 32013 ft 483 kts 320°
2026-05-05 04:39 -9.11941 -1.51899 32012 ft 483 kts 320°
2026-05-05 04:40 -9.06671 -1.56124 32011 ft 484 kts 320°
2026-05-05 04:40 -9.01471 -1.60458 32005 ft 483 kts 314°
2026-05-05 04:41 -8.96954 -1.65490 31979 ft 483 kts 310°
2026-05-05 04:41 -8.92493 -1.70585 31943 ft 484 kts 310°
2026-05-05 04:42 -8.88019 -1.75688 31931 ft 484 kts 310°
2026-05-05 04:42 -8.83550 -1.80779 31931 ft 485 kts 310°
2026-05-05 04:43 -8.79056 -1.85897 31934 ft 485 kts 310°
2026-05-05 04:43 -8.74579 -1.90992 31934 ft 486 kts 310°
2026-05-05 04:44 -8.70065 -1.96126 31934 ft 486 kts 310°
2026-05-05 04:44 -8.65578 -2.01226 31933 ft 486 kts 310°
2026-05-05 04:45 -8.61102 -2.06313 31932 ft 486 kts 310°
2026-05-05 04:45 -8.56612 -2.11413 31932 ft 486 kts 310°
2026-05-05 04:46 -8.52122 -2.16512 31934 ft 486 kts 310°
2026-05-05 04:46 -8.47602 -2.21643 31934 ft 487 kts 310°
2026-05-05 04:47 -8.43102 -2.26749 31934 ft 487 kts 310°
2026-05-05 04:47 -8.38602 -2.31852 31933 ft 487 kts 310°
2026-05-05 04:48 -8.34079 -2.36981 31933 ft 487 kts 310°
2026-05-05 04:48 -8.29570 -2.42090 31933 ft 487 kts 310°
2026-05-05 04:49 -8.25063 -2.47195 31933 ft 487 kts 310°
2026-05-05 04:49 -8.20552 -2.52305 31933 ft 487 kts 310°
2026-05-05 04:50 -8.16037 -2.57417 31933 ft 487 kts 310°
2026-05-05 04:50 -8.11518 -2.62530 31933 ft 487 kts 310°
2026-05-05 04:51 -8.07003 -2.67638 31932 ft 487 kts 311°
2026-05-05 04:51 -8.02477 -2.72757 31927 ft 486 kts 311°
2026-05-05 04:52 -7.97984 -2.77835 31926 ft 486 kts 311°
2026-05-05 04:52 -7.93486 -2.82918 31925 ft 486 kts 311°
2026-05-05 04:53 -7.88958 -2.88034 31925 ft 487 kts 311°
2026-05-05 04:53 -7.84438 -2.93138 31926 ft 488 kts 311°
2026-05-05 04:54 -7.79889 -2.98272 31926 ft 488 kts 311°
2026-05-05 04:54 -7.75368 -3.03375 31926 ft 488 kts 311°
2026-05-05 04:55 -7.70856 -3.08464 31926 ft 487 kts 311°
2026-05-05 04:55 -7.66319 -3.13580 31926 ft 487 kts 311°
2026-05-05 04:56 -7.61812 -3.18660 31923 ft 487 kts 311°
2026-05-05 04:56 -7.57294 -3.23752 31919 ft 487 kts 311°
2026-05-05 04:57 -7.52785 -3.28831 31918 ft 487 kts 311°
2026-05-05 04:57 -7.48278 -3.33907 31918 ft 486 kts 311°
2026-05-05 04:58 -7.43736 -3.39019 31918 ft 486 kts 311°